Voltar ao catálogo

STARLINK-38164

AtivoComunicaçõesSSO
NORAD 100224·PAYLOAD·🇺🇸 United States

Lançado Aug 4, 2026 de Vandenberg Space Force Base

Loading…

Próximas Passagens (próximas 24 horas)

TLE

AtualizadoSource: Space-Track

Época: Sep 14, 2026, 22:41 UTC

1 A0224U 26177M   26257.94546429  .00015478  00000-0  28530-3 0  9992
2 A0224  97.2835 308.7359 0002548  71.0131 289.1396 15.49226887  7424

Acompanhe STARLINK-38164 em tempo real com AllMySat

Download on the App Store